EW5860 Weather Reports


time (UTC)temp
C
wind
direction
speed
KPH
gust
KPH
rain 1hr
cm
rain 24hr
cm
rain mn
cm
humidity
%
barometer
mb
20260904084525 23 266 1.6 12.9 0.00 1.22 0.00 89 1011.6
20260904083029 23 263 3.2 14.5 0.00 1.22 0.00 90 1011.6
20260904081522 23 312 3.2 9.7 0.00 1.22 0.00 92 1011.6
20260904080022 23 334 0.0 12.9 0.00 1.22 0.00 92 1011.6
20260904074537 23 262 0.0 11.3 0.00 1.42 0.00 94 1011.8
20260904073022 23 222 0.0 4.8 0.00 1.42 0.00 97 1011.5
20260904071520 22 224 0.0 0.0 0.00 1.42 0.00 97 1011.5
20260904070019 22 215 0.0 0.0 0.00 1.42 0.00 96 1011.0
20260904064518 23 213 0.0 3.2 0.00 1.42 0.00 97 1010.7
20260904063034 23 217 0.0 1.6 0.00 1.42 0.00 96 1010.5
20260904061516 23 217 0.0 3.2 0.00 1.42 0.00 96 1010.6
20260904060012 23 250 0.0 0.0 0.00 1.42 0.00 95 1010.8
20260904054510 23 250 0.0 0.0 0.00 3.30 0.00 95 1011.3
20260904053008 23 250 0.0 0.0 0.00 3.30 0.00 94 1011.7
20260904051507 24 250 0.0 3.2 0.00 3.30 0.00 93 1011.6
20260904050006 24 62 0.0 1.6 0.00 3.30 0.00 93 1011.3
20260904044505 24 306 0.0 3.2 0.00 3.38 0.00 92 1011.1
20260904043004 24 234 3.2 16.1 0.10 3.38 0.00 91 1011.2
20260904041609 23 208 4.8 9.7 0.13 3.38 0.00 94 1011.5
20260904040056 24 230 0.0 3.2 0.13 3.38 0.00 93 1012.0
20260904034556 25 319 0.0 9.7 0.13 3.38 3.38 89 1012.1
20260904033100 25 211 1.6 6.4 0.03 3.28 3.28 85 1012.0
20260904031604 26 196 4.8 11.3 0.00 3.25 3.25 81 1012.4
20260904030054 25 220 6.4 12.9 0.00 3.25 3.25 83 1012.5
20260904024554 24 205 4.8 8.0 0.00 3.25 3.25 89 1012.4
20260904023053 24 258 0.0 0.0 0.00 3.25 3.25 87 1012.4
20260904021554 25 38 0.0 0.0 0.00 3.25 3.25 84 1012.3
20260904020051 25 38 0.0 3.2 0.00 3.25 3.25 82 1012.5
20260904014553 26 244 0.0 9.7 0.00 3.25 3.25 82 1012.5
20260904013052 26 212 3.2 14.5 0.00 3.25 3.25 82 1012.4
20260904011551 26 195 3.2 12.9 0.00 3.25 3.25 83 1012.7
20260904010053 26 208 6.4 12.9 0.00 3.25 3.25 83 1012.7
20260904004549 26 182 4.8 11.3 0.00 3.25 3.25 84 1013.0
20260904003049 26 196 4.8 11.3 0.00 3.25 3.25 84 1012.8
20260904001549 25 205 3.2 9.7 0.00 3.25 3.25 87 1012.7
20260904000048 24 212 1.6 4.8 0.00 3.25 3.25 93 1012.5
20260903234547 25 205 0.0 0.0 0.00 3.25 3.25 91 1012.3
20260903233048 25 205 0.0 0.0 0.00 3.25 3.25 89 1012.3
20260903231550 25 205 0.0 0.0 0.00 3.25 3.25 87 1012.6
20260903230049 26 205 0.0 3.2 0.00 3.25 3.25 85 1012.4
20260903224547 27 216 0.0 3.2 0.00 3.25 3.25 79 1012.2
20260903223046 29 231 0.0 4.8 0.00 3.25 3.25 74 1012.1
20260903221549 30 225 0.0 4.8 0.00 3.25 3.25 73 1012.1
20260903220044 30 241 0.0 6.4 0.00 3.25 3.25 72 1012.2
20260903214545 30 206 1.6 12.9 0.00 3.25 3.25 70 1012.0
20260903213042 30 225 0.0 1.6 0.00 3.25 3.25 73 1011.7
20260903211548 29 235 0.0 3.2 0.00 3.25 3.25 71 1011.8
20260903210041 29 207 1.6 6.4 0.00 3.25 3.25 69 1011.8
20260903204538 30 253 1.6 14.5 0.00 3.25 3.25 68 1012.0
20260903203047 30 154 3.2 16.1 0.00 3.25 3.25 67 1012.0
20260903201535 30 270 6.4 16.1 0.00 3.25 3.25 66 1012.2
20260903200043 30 240 6.4 14.5 0.00 3.25 3.25 67 1012.3
20260903194540 29 259 8.0 14.5 0.00 3.25 3.25 68 1012.3
20260903193035 29 212 6.4 16.1 0.00 3.25 3.25 67 1012.5
20260903191533 29 190 4.8 17.7 0.00 3.25 3.25 69 1012.7
20260903190024 29 192 3.2 14.5 0.00 3.25 3.25 67 1012.9
20260903184521 28 269 3.2 16.1 0.00 3.28 3.25 73 1013.2
20260903183022 29 203 6.4 19.3 0.00 3.28 3.25 69 1013.3
20260903181517 28 217 6.4 14.5 0.00 3.28 3.25 72 1013.4
20260903180029 28 238 0.0 9.7 0.00 3.28 3.25 74 1013.6
20260903174512 28 179 6.4 17.7 0.00 3.51 3.25 73 1013.6
20260903173009 28 190 6.4 17.7 0.00 3.51 3.25 77 1013.6
20260903171506 27 251 4.8 17.7 0.00 3.51 3.25 78 1014.0
20260903170004 27 250 11.3 25.7 0.00 3.51 3.25 77 1014.2
20260903164504 27 212 9.7 22.5 0.00 3.51 3.25 76 1014.6
20260903163003 27 265 6.4 17.7 0.00 3.51 3.25 76 1014.7
20260903161500 27 250 4.8 17.7 0.00 3.51 3.25 77 1014.8
20260903160107 26 271 8.0 22.5 0.00 3.51 3.25 78 1015.0
20260903154554 26 210 8.0 19.3 0.00 3.51 3.25 80 1015.6
20260903153051 25 271 4.8 14.5 0.00 3.51 3.25 86 1015.8
20260903151554 25 239 6.4 16.1 0.00 3.51 3.25 86 1015.6
20260903150056 25 218 3.2 16.1 0.00 3.51 3.25 87 1015.6
20260903144554 25 280 4.8 20.9 0.00 3.51 3.25 87 1016.0
20260903143148 25 216 0.0 12.9 0.00 3.51 3.25 88 1015.7
20260903141545 25 256 3.2 8.0 0.00 3.51 3.25 87 1015.4
20260903140043 24 132 4.8 16.1 0.00 3.51 3.25 89 1015.2
20260903134540 24 236 0.0 1.6 0.00 3.51 3.25 92 1015.3
20260903133040 23 216 0.0 6.4 0.00 3.51 3.25 92 1015.3
20260903131539 23 198 1.6 9.7 0.00 3.51 3.25 92 1015.0
20260903130036 22 336 0.0 1.6 0.00 3.51 3.25 95 1015.0
20260903124527 21 252 0.0 3.2 0.00 3.53 3.25 95 1015.1
20260903123025 21 200 4.8 16.1 0.00 3.53 3.25 95 1015.1
20260903121524 21 210 9.7 17.7 0.00 3.53 3.25 96 1015.1
20260903120022 21 169 11.3 27.4 0.00 3.53 3.25 96 1015.0
20260903114521 20 229 8.0 24.1 0.00 3.56 3.25 97 1014.8
20260903113027 20 221 9.7 19.3 0.03 3.56 3.25 97 1014.5
20260903111517 20 198 6.4 17.7 0.03 3.56 3.25 98 1014.9
20260903110024 20 163 1.6 17.7 0.03 3.56 3.25 98 1015.5
20260903104513 20 215 0.0 3.2 0.03 3.56 3.25 98 1016.3
20260903103012 20 49 0.0 4.8 0.00 3.53 3.23 98 1016.8
20260903101511 20 225 4.8 19.3 0.00 3.53 3.23 98 1016.2
20260903100011 20 213 9.7 22.5 0.08 3.53 3.23 98 1016.1
20260903094523 20 199 6.4 22.5 0.15 3.53 3.23 98 1016.0
20260903093009 20 183 6.4 14.5 0.28 3.53 3.23 99 1016.3
20260903091508 19 224 3.2 16.1 0.36 3.53 3.23 98 1015.8
20260903090007 19 227 0.0 9.7 0.91 3.45 3.15 98 1016.7